Temp
-8 -8 -9 -9 -9 -9 -8 -9 -10 -10 -10 -10 -10 -10 -10 -11 -11 -11 -11 -11 -12 -12 -12 -12 -12 -12 -12 -12 -12 -13 -12 -13 -13 -12 -12 -12 -12 -12 -12 -12 -13 -12 -13
-8 -9 -9 -9 -9 -9 -9 -10 -10 -10 -10 -10 -10 -10 -10 -10 -10 -11 -11 -11 -12 -12 -12 -12 -12 -12 -12 -12 -12 -13 -13 -13 -13 -13 -12 -12 -12 -12 -12 -12 -12 -12 -12
-9 -9 -9 -9 -9 -9 -10 -10 -10 -10 -10 -10 -10 -10 -11 -10 -10 -11 -11 -11 -12 -12 -12 -12 -12 -12 -12 -12 -12 -13 -13 -13 -13 -13 -13 -13 -12 -12 -13 -13 -12 -12 -12
-9 -9 -9 -9 -9 -9 -10 -10 -10 -10 -10 -10 -10 -11 -11 -10 -11 -11 -11 -11 -12 -12 -12 -12 -12 -12 -12 -12 -12 -12 -13 -13 -13 -13 -13 -13 -12 -12 -12 -12 -12 -12 -12
-9 -9 -9 -9 -9 -10 -10 -10 -10 -10 -10 -10 -10 -11 -10 -11 -10 -11 -11 -11 -12 -12 -12 -12 -12 -12 -12 -13 -13 -12 -13 -13 -13 -13 -13 -12 -12 -12 -12 -12 -12 -12 -12
-9 -9 -9 -9 -10 -10 -10 -10 -10 -10 -10 -10 -10 -11 -11 -10 -11 -11 -11 -11 -12 -12 -12 -12 -12 -12 -12 -13 -12 -12 -13 -13 -13 -13 -12 -12 -12 -12 -12 -12 -12 -12 -12
-9 -9 -9 -10 -10 -10 -10 -10 -10 -10 -10 -10 -11 -11 -11 -10 -11 -11 -11 -12 -12 -12 -12 -12 -12 -12 -12 -12 -12 -13 -13 -13 -13 -13 -13 -12 -12 -12 -12 -12 -12 -12 -12
-10 -10 -10 -10 -10 -10 -10 -10 -10 -10 -10 -10 -11 -11 -11 -11 -11 -11 -11 -12 -12 -12 -12 -12 -12 -12 -12 -12 -12 -13 -13 -13 -13 -12 -12 -12 -12 -12 -12 -12 -12 -12 -12
-10 -10 -10 -10 -10 -10 -10 -10 -10 -10 -10 -10 -11 -11 -11 -11 -11 -11 -11 -12 -12 -12 -12 -12 -12 -12 -12 -12 -12 -13 -13 -13 -13 -13 -13 -12 -11 -12 -12 -12 -12 -12 -12
-10 -10 -10 -10 -10 -10 -10 -10 -10 -10 -11 -10 -11 -11 -11 -11 -11 -11 -11 -11 -11 -12 -11 -11 -12 -12 -12 -12 -12 -12 -12 -12 -12 -12 -13 -12 -11 -12 -12 -12 -12 -12 -13
-11 -11 -10 -10 -10 -10 -10 -10 -10 -11 -11 -10 -11 -11 -11 -11 -11 -11 -11 -11 -12 -12 -11 -11 -12 -12 -12 -12 -12 -12 -12 -12 -12 -13 -12 -12 -12 -12 -12 -12 -12 -12 -12
-11 -11 -11 -11 -10 -10 -10 -11 -11 -11 -11 -11 -11 -11 -11 -11 -11 -11 -11 -11 -12 -11 -12 -12 -12 -12 -12 -12 -12 -12 -12 -12 -12 -12 -12 -12 -12 -12 -12 -12 -12 -11 -11
-11 -11 -11 -11 -11 -11 -11 -11 -11 -11 -11 -11 -11 -11 -11 -11 -10 -11 -11 -11 -11 -12 -12 -12 -11 -12 -12 -12 -12 -12 -12 -12 -12 -12 -12 -12 -11 -12 -12 -12 -12 -12 -12
-11 -11 -11 -11 -11 -11 -11 -11 -11 -11 -11 -11 -11 -11 -11 -11 -10 -11 -10 -11 -11 -12 -12 -12 -11 -11 -12 -12 -12 -12 -12 -12 -12 -12 -12 -12 -12 -12 -12 -11 -11 -12 -11
-11 -11 -11 -11 -11 -11 -11 -11 -11 -11 -11 -11 -11 -11 -11 -10 -10 -10 -10 -11 -11 -11 -11 -11 -11 -11 -11 -12 -12 -12 -12 -12 -12 -12 -12 -12 -12 -12 -12 -12 -12 -12 -12
-11 -11 -11 -11 -11 -11 -11 -11 -11 -11 -11 -11 -11 -11 -11 -10 -10 -10 -10 -11 -11 -11 -11 -11 -11 -11 -11 -11 -12 -12 -12 -12 -12 -12 -12 -12 -12 -12 -12 -12 -12 -12 -12
-11 -11 -11 -11 -11 -11 -11 -11 -11 -11 -11 -11 -11 -11 -11 -10 -10 -10 -10 -10 -10 -11 -11 -11 -11 -11 -11 -11 -12 -12 -12 -12 -12 -12 -12 -12 -12 -12 -12 -12 -12 -13 -13
-11 -11 -11 -11 -11 -11 -11 -11 -11 -12 -12 -12 -12 -11 -11 -11 -10 -10 -10 -10 -10 -10 -10 -11 -11 -11 -11 -11 -11 -11 -11 -12 -12 -12 -12 -12 -12 -12 -12 -12 -12 -13 -14
-11 -11 -12 -12 -12 -12 -12 -12 -12 -12 -12 -12 -12 -12 -11 -11 -11 -11 -10 -10 -11 -10 -10 -11 -11 -11 -11 -11 -11 -11 -11 -11 -12 -12 -12 -12 -12 -12 -12 -13 -14 -14 -14
-11 -11 -12 -12 -12 -12 -12 -12 -13 -13 -12 -13 -12 -12 -12 -11 -11 -11 -11 -11 -11 -11 -11 -11 -11 -11 -12 -12 -11 -11 -12 -12 -12 -12 -12 -13 -13 -13 -13 -13 -14 -13 -13
-12 -12 -12 -12 -12 -12 -12 -13 -13 -13 -13 -12 -12 -12 -12 -12 -11 -11 -12 -12 -12 -12 -12 -12 -12 -12 -12 -12 -12 -12 -12 -12 -12 -13 -13 -13 -13 -13 -13 -13 -13 -13 -13
-12 -12 -12 -12 -12 -12 -12 -12 -13 -12 -13 -13 -12 -13 -13 -12 -12 -12 -12 -12 -12 -12 -12 -12 -12 -12 -12 -13 -13 -13 -13 -13 -13 -13 -13 -13 -13 -13 -13 -13 -13 -13 -13
-12 -12 -12 -12 -12 -12 -13 -13 -13 -13 -13 -13 -13 -13 -13 -13 -12 -12 -12 -12 -12 -12 -13 -13 -13 -13 -13 -13 -13 -13 -13 -13 -13 -13 -13 -13 -13 -13 -14 -14 -14 -14 -14
-13 -13 -12 -12 -12 -13 -13 -13 -13 -13 -13 -13 -13 -13 -13 -13 -13 -13 -13 -13 -12 -13 -13 -13 -13 -13 -13 -13 -14 -14 -14 -14 -14 -14 -14 -14 -14 -14 -14 -14 -14 -14 -14
-13 -13 -12 -13 -13 -13 -12 -13 -13 -12 -13 -12 -13 -12 -12 -13 -13 -13 -13 -13 -13 -13 -13 -13 -14 -14 -14 -14 -14 -14 -14 -14 -14 -13 -13 -13 -13 -13 -13 -13 -13 -13 -13
-13 -13 -13 -12 -12 -12 -12 -12 -12 -13 -13 -13 -13 -13 -13 -13 -14 -14 -14 -14 -14 -14 -14 -14 -14 -13 -13 -13 -13 -13 -13 -13 -13 -13 -13 -13 -13 -13 -13 -13 -13 -13 -13
Height
5731 5735 5738 5742 5745 5746 5746 5745 5745 5744 5744 5743 5742 5741 5739 5737 5734 5732 5731 5729 5726 5725 5724 5721 5720 5717 5716 5716 5716 5717 5719 5720 5722 5724 5727 5731 5733 5735 5739 5742 5747 5751 5755
5725 5729 5732 5736 5739 5739 5740 5739 5739 5739 5739 5738 5737 5735 5733 5731 5728 5727 5726 5724 5721 5720 5718 5716 5715 5714 5712 5712 5713 5714 5717 5718 5720 5721 5724 5727 5731 5734 5738 5741 5746 5750 5754
5719 5723 5727 5731 5733 5734 5733 5734 5734 5734 5734 5733 5731 5729 5727 5725 5723 5722 5722 5719 5718 5716 5713 5712 5710 5708 5706 5706 5708 5710 5713 5716 5718 5720 5722 5725 5728 5733 5737 5741 5745 5749 5754
5715 5720 5723 5725 5727 5728 5728 5729 5730 5729 5729 5728 5726 5725 5722 5720 5718 5718 5716 5715 5713 5711 5708 5706 5704 5702 5701 5702 5704 5707 5711 5713 5715 5718 5720 5723 5727 5731 5735 5740 5745 5750 5754
5711 5715 5718 5720 5722 5722 5723 5725 5725 5725 5724 5723 5722 5719 5717 5715 5714 5713 5711 5710 5709 5707 5705 5703 5699 5697 5696 5697 5701 5704 5706 5709 5712 5715 5718 5721 5725 5730 5735 5739 5744 5749 5752
5707 5710 5713 5716 5716 5717 5719 5720 5720 5720 5719 5719 5717 5715 5713 5712 5711 5709 5708 5707 5705 5704 5701 5698 5693 5691 5692 5695 5699 5702 5704 5706 5711 5714 5717 5720 5724 5729 5733 5738 5743 5748 5753
5702 5706 5709 5711 5712 5713 5715 5715 5716 5715 5715 5714 5712 5711 5709 5708 5707 5706 5705 5704 5703 5701 5698 5694 5690 5688 5688 5693 5698 5701 5703 5706 5709 5712 5716 5720 5724 5728 5733 5738 5743 5747 5750
5699 5702 5704 5707 5708 5710 5711 5711 5711 5712 5712 5709 5708 5707 5707 5706 5705 5704 5703 5702 5700 5697 5693 5691 5690 5690 5691 5694 5698 5702 5704 5706 5708 5711 5713 5717 5722 5727 5731 5736 5741 5745 5750
5695 5698 5700 5703 5704 5706 5707 5708 5708 5708 5707 5706 5705 5704 5704 5703 5703 5702 5701 5700 5698 5694 5690 5688 5690 5691 5694 5696 5699 5702 5705 5707 5709 5710 5712 5715 5719 5724 5729 5735 5741 5746 5750
5691 5693 5696 5698 5702 5703 5704 5704 5704 5704 5703 5702 5701 5700 5700 5700 5700 5700 5700 5699 5697 5693 5689 5689 5691 5694 5695 5697 5700 5702 5705 5708 5711 5712 5712 5714 5718 5722 5727 5733 5739 5744 5749
5688 5690 5693 5695 5698 5700 5700 5700 5700 5700 5700 5699 5698 5697 5697 5697 5697 5698 5699 5699 5697 5694 5692 5692 5693 5696 5697 5699 5701 5704 5706 5709 5712 5714 5715 5717 5720 5724 5729 5734 5739 5744 5748
5685 5688 5690 5693 5696 5697 5696 5696 5696 5696 5695 5695 5694 5693 5694 5694 5695 5696 5697 5697 5696 5695 5694 5694 5695 5697 5699 5701 5703 5705 5708 5711 5714 5716 5719 5721 5724 5726 5731 5736 5741 5744 5748
5682 5687 5688 5691 5693 5694 5693 5693 5692 5692 5691 5690 5690 5689 5690 5691 5693 5694 5696 5696 5696 5696 5696 5696 5696 5697 5699 5701 5704 5707 5710 5713 5716 5719 5722 5724 5727 5730 5733 5737 5741 5745 5748
5681 5685 5687 5689 5690 5690 5690 5690 5689 5688 5687 5687 5686 5685 5686 5689 5691 5693 5694 5695 5696 5696 5696 5696 5696 5698 5700 5702 5705 5708 5711 5714 5717 5719 5722 5726 5729 5731 5734 5738 5741 5745 5748
5680 5682 5684 5686 5687 5687 5687 5686 5686 5686 5686 5685 5684 5685 5686 5689 5691 5692 5693 5694 5695 5696 5696 5697 5697 5699 5701 5703 5706 5709 5712 5715 5718 5721 5723 5726 5729 5732 5735 5738 5741 5744 5748
5676 5680 5682 5684 5684 5684 5684 5684 5684 5684 5685 5685 5685 5686 5687 5688 5689 5690 5691 5692 5694 5695 5696 5697 5698 5699 5702 5704 5707 5710 5712 5716 5718 5721 5723 5725 5728 5731 5734 5737 5740 5744 5747
5674 5677 5679 5682 5681 5682 5682 5681 5681 5683 5684 5685 5686 5686 5686 5686 5687 5688 5690 5691 5693 5695 5696 5698 5699 5700 5702 5704 5707 5710 5712 5715 5718 5720 5722 5724 5727 5729 5733 5736 5739 5742 5745
5672 5675 5677 5678 5681 5680 5680 5679 5679 5682 5684 5686 5687 5686 5686 5686 5687 5687 5689 5691 5694 5696 5697 5699 5701 5702 5703 5705 5707 5710 5712 5715 5717 5720 5722 5724 5726 5729 5733 5736 5739 5743 5746
5671 5673 5675 5677 5679 5681 5681 5680 5681 5683 5685 5687 5688 5688 5687 5686 5687 5688 5689 5692 5695 5697 5699 5700 5702 5704 5705 5707 5709 5711 5713 5715 5718 5720 5723 5725 5728 5732 5734 5737 5740 5743 5747
5669 5671 5674 5677 5679 5681 5682 5682 5683 5685 5686 5687 5689 5690 5689 5688 5689 5690 5692 5694 5696 5698 5700 5702 5704 5705 5707 5709 5710 5712 5714 5716 5719 5722 5724 5727 5730 5733 5736 5739 5742 5745 5747
5667 5670 5673 5676 5679 5681 5682 5682 5684 5686 5688 5689 5691 5691 5691 5691 5691 5693 5694 5695 5697 5699 5701 5703 5705 5707 5709 5711 5713 5714 5717 5719 5721 5723 5726 5729 5732 5735 5738 5740 5742 5744 5745
5666 5669 5672 5675 5678 5680 5683 5684 5685 5687 5689 5690 5691 5692 5693 5693 5694 5696 5697 5698 5698 5700 5702 5703 5705 5706 5708 5710 5712 5715 5717 5720 5722 5725 5727 5730 5733 5735 5736 5738 5739 5741 5742
5665 5668 5671 5673 5676 5679 5681 5684 5685 5687 5690 5692 5693 5693 5694 5695 5696 5699 5699 5700 5701 5702 5703 5705 5706 5708 5710 5712 5715 5717 5719 5721 5723 5726 5728 5730 5732 5733 5734 5736 5736 5737 5738
5662 5664 5668 5671 5675 5677 5681 5684 5685 5688 5691 5692 5693 5694 5694 5696 5698 5700 5701 5702 5704 5706 5709 5710 5711 5712 5714 5716 5717 5719 5721 5723 5724 5726 5727 5728 5729 5729 5730 5731 5731 5731 5731
5657 5662 5666 5668 5672 5675 5679 5681 5683 5687 5691 5692 5694 5695 5698 5698 5700 5702 5704 5706 5707 5708 5709 5710 5711 5712 5714 5715 5716 5717 5718 5719 5720 5721 5722 5723 5724 5724 5725 5725 5725 5725 5725
5656 5659 5657 5662 5665 5672 5675 5679 5684 5686 5690 5693 5693 5693 5694 5695 5697 5698 5700 5702 5704 5705 5706 5707 5708 5708 5710 5711 5713 5714 5715 5716 5717 5717 5718 5719 5720 5720 5721 5721 5720 5719 5718
Wind_Speed
30 31 31 31 27 27 25 25 24 24 24 25 27 25 26 28 27 27 24 24 22 20 21 20 17 21 17 16 15 11 10 10 12 16 16 16 11 13 18 17 15 18 17
30 28 28 25 24 25 24 24 24 24 23 26 24 25 28 28 27 23 21 22 20 20 20 17 19 20 20 16 16 14 11 9 7 14 16 17 15 14 16 19 18 17 17
25 25 24 24 24 23 22 23 23 22 24 23 24 26 26 23 22 21 20 19 19 20 19 20 20 21 21 20 17 17 12 12 10 10 16 17 16 14 15 17 17 18 18
24 23 23 23 22 22 22 22 19 22 22 22 23 24 21 20 19 20 20 18 18 18 21 23 24 24 18 16 20 14 13 13 12 11 14 18 18 17 17 18 18 17 16
24 22 22 21 22 21 19 17 20 20 20 22 23 20 17 17 17 19 18 17 18 18 21 21 21 17 12 16 14 16 15 13 12 13 14 17 20 17 18 18 17 18 17
22 21 21 22 19 17 15 17 18 19 21 22 21 17 17 16 16 16 15 17 17 18 20 23 20 11 10 17 17 14 11 10 11 12 13 16 20 18 17 18 19 18 14
21 21 21 17 15 14 15 17 17 20 22 21 18 16 15 15 15 15 15 18 17 18 19 18 7 7 10 19 17 12 10 10 12 11 12 14 17 19 17 18 16 19 20
20 19 16 12 12 13 15 15 17 20 18 17 17 17 14 17 15 15 16 15 17 19 19 16 3 2 13 16 14 12 13 13 12 12 14 15 18 19 19 21 19 20 18
17 16 13 10 12 13 14 15 18 17 16 15 16 15 16 17 16 14 14 14 16 21 19 6 2 9 13 13 15 15 16 17 12 9 10 14 17 20 24 21 19 21 18
16 13 11 10 10 13 14 16 15 15 15 15 16 15 16 15 14 13 11 13 15 12 10 7 8 12 10 15 17 19 18 17 11 8 12 16 18 19 24 24 26 23 21
14 11 9 10 12 12 13 14 14 15 14 15 17 15 14 13 12 12 9 10 11 10 2 7 9 13 11 18 18 18 19 19 17 10 21 22 21 23 24 24 23 25 24
13 8 10 11 11 11 12 14 14 14 16 17 17 17 15 11 12 13 9 6 7 8 5 5 7 10 15 16 15 17 18 19 16 15 14 21 20 23 23 21 22 19 20
11 8 11 11 10 10 12 12 12 15 17 16 16 16 17 14 14 13 9 4 3 3 5 3 9 11 13 15 16 13 16 18 15 14 15 17 19 21 22 21 17 16 16
9 10 10 10 10 10 11 11 14 15 14 12 13 13 13 15 13 12 9 5 4 2 0 2 8 12 12 14 14 15 16 14 13 14 15 14 17 20 21 19 17 14 12
10 10 10 10 9 10 11 12 12 11 8 7 6 8 11 11 10 10 8 7 6 4 3 2 7 12 14 14 15 15 15 14 15 15 15 15 16 15 15 16 18 16 13
10 9 9 8 9 9 11 11 10 9 6 7 7 7 8 8 7 9 7 6 7 7 5 5 7 11 13 14 15 15 15 16 17 17 17 17 17 17 16 17 20 18 15
11 9 9 7 7 8 9 11 13 8 9 9 7 5 4 5 6 7 6 7 10 9 7 8 9 10 12 14 15 16 15 14 13 13 13 14 15 17 19 16 16 16 19
11 10 9 7 4 5 8 8 5 10 10 7 5 3 2 3 6 6 8 13 12 9 8 9 10 9 10 13 15 15 14 14 15 13 11 10 12 14 15 17 16 19 19
11 11 8 7 4 3 1 5 9 11 10 7 5 4 4 5 6 7 8 10 11 9 8 9 9 9 9 9 11 13 14 13 13 13 10 13 12 12 15 17 18 18 16
11 11 10 8 7 4 4 8 9 8 8 8 8 7 7 9 8 7 8 9 9 9 9 9 7 8 8 8 10 10 11 13 14 13 13 12 15 16 16 16 15 14 13
14 13 12 10 11 7 6 9 10 9 8 6 5 6 7 8 9 10 12 11 11 9 9 9 8 9 8 9 8 10 10 9 9 12 14 14 14 13 10 9 9 10 12
15 13 13 14 12 10 10 12 11 10 8 8 8 7 7 8 8 8 10 10 12 13 12 12 11 11 10 10 12 12 11 12 12 12 12 12 10 9 9 10 11 12 12
19 20 17 17 15 12 13 15 14 12 12 11 9 9 9 8 9 7 9 10 10 11 11 11 10 10 11 11 11 11 11 11 13 13 12 10 9 8 9 10 11 11 12
23 22 19 20 17 15 15 17 17 16 13 11 10 9 9 10 11 10 10 10 8 7 7 6 6 5 6 7 8 7 6 6 7 8 9 9 9 10 11 12 13 15 17
25 23 22 23 21 18 17 20 20 17 16 13 11 8 4 6 6 6 6 6 6 6 5 5 6 7 7 8 9 10 11 12 13 14 14 15 16 16 18 19 21 22 24
26 26 30 29 28 23 20 19 15 16 15 14 13 13 13 14 13 13 13 12 12 11 11 11 12 14 14 15 15 15 15 16 18 19 20 21 22 23 24 26 28 29 31
Wind_Direction
244 238 236 243 250 257 272 278 278 283 290 289 293 295 294 293 293 294 292 297 295 295 303 302 297 302 295 278 265 255 249 236 234 219 210 208 198 198 202 203 201 199 204
231 230 237 245 253 264 271 272 273 284 287 290 295 294 292 291 286 288 293 299 290 296 306 298 299 302 292 277 256 243 234 234 247 204 206 198 198 198 197 202 193 193 193
226 232 239 247 256 262 264 268 275 281 287 293 297 294 289 285 281 286 293 289 285 298 299 298 299 310 285 260 240 228 230 234 239 221 208 196 193 189 182 171 187 185 185
228 234 240 248 253 259 262 268 273 279 287 296 294 291 287 283 280 288 293 286 289 300 299 300 304 294 269 237 217 223 226 230 227 218 201 198 190 187 186 188 188 191 195
228 232 240 247 253 257 259 264 273 283 290 291 290 292 290 278 282 291 290 286 294 299 300 309 308 294 266 228 213 221 213 229 221 208 202 197 196 189 187 191 193 193 197
221 230 238 246 249 250 255 267 279 284 289 287 288 296 284 279 287 291 285 291 294 304 311 317 306 272 241 207 199 212 236 204 203 200 195 197 198 195 190 193 193 191 200
220 227 236 239 242 250 259 275 280 288 288 288 291 297 285 280 292 288 288 292 303 311 313 322 314 291 208 179 193 202 206 165 170 174 180 194 201 194 200 196 193 194 188
215 227 228 230 244 249 268 276 283 287 292 293 295 296 283 276 287 286 292 296 311 320 314 332 323 145 160 171 179 179 170 159 158 172 187 193 193 203 203 194 188 191 189
214 218 224 228 242 261 274 275 280 289 288 291 289 287 283 273 278 283 288 307 318 324 326 302 165 168 168 177 175 174 163 160 144 152 175 195 196 217 201 195 195 183 183
209 215 231 238 247 267 265 273 283 286 287 292 293 286 277 271 267 269 284 310 326 351 338 161 148 165 176 168 167 165 163 167 159 146 151 163 177 175 182 190 191 194 185
212 218 236 247 264 263 268 279 281 280 285 291 291 278 270 265 257 255 277 308 333 11 76 145 160 167 175 169 169 169 174 173 171 155 132 134 157 165 172 175 178 175 175
218 217 236 253 260 262 274 285 280 280 289 286 278 270 255 241 241 243 266 298 325 16 110 152 167 170 175 182 178 174 181 182 182 163 151 141 148 165 159 157 168 183 187
216 222 238 259 258 265 281 283 282 290 292 279 274 263 248 222 224 231 251 272 290 2 28 152 176 182 180 182 182 184 180 177 179 171 167 160 150 147 158 163 166 172 176
203 225 246 253 255 272 282 277 291 294 286 276 268 251 218 205 217 230 247 248 244 249 238 162 188 184 175 176 180 170 168 177 178 174 174 174 175 176 181 181 169 172 165
208 226 240 243 257 270 279 286 285 288 268 254 213 184 187 198 225 246 248 243 225 207 215 175 178 190 180 174 173 171 173 180 180 185 186 183 185 192 196 197 199 193 180
216 222 230 240 265 274 280 280 281 278 231 212 186 187 203 227 239 242 237 223 218 198 210 195 168 176 181 180 181 181 184 186 191 192 194 201 204 206 205 200 197 191 197
219 223 229 239 269 279 281 282 278 252 198 204 199 213 242 239 222 234 231 208 197 187 184 185 164 167 172 173 174 181 190 191 194 191 192 195 197 193 190 192 191 186 179
216 216 222 247 242 277 302 302 178 176 170 179 189 200 245 231 210 207 176 177 178 172 164 169 173 164 167 177 182 186 185 183 180 178 179 185 180 185 187 177 174 173 180
211 210 219 225 211 237 310 129 149 159 162 164 169 155 121 118 153 153 153 169 190 189 186 173 171 169 170 177 180 182 187 184 178 184 196 170 164 178 175 167 168 174 182
209 210 223 206 201 196 171 150 154 168 166 161 155 142 123 104 103 141 153 165 169 175 180 172 165 155 148 153 162 157 170 171 162 160 161 164 164 162 159 163 172 185 202
208 206 217 200 200 199 181 161 163 161 164 164 165 165 152 124 117 114 120 142 139 149 155 155 152 159 163 150 146 155 161 171 169 163 162 167 167 166 169 181 195 207 213
215 208 212 197 201 203 200 179 176 178 176 183 175 161 136 143 149 144 131 127 127 124 125 131 142 155 161 164 163 158 155 158 162 164 163 166 172 183 197 212 222 231 237
198 218 211 202 204 207 217 206 194 188 186 177 161 149 144 144 136 146 145 146 151 151 154 152 148 147 149 152 155 160 166 174 177 181 190 205 221 238 251 257 260 263 265
208 218 210 207 208 212 216 204 202 190 190 185 179 175 168 160 157 164 160 158 155 123 106 107 123 149 162 165 164 168 180 191 207 222 230 237 243 249 250 249 250 249 249
200 217 214 215 212 213 219 212 207 203 196 217 217 224 218 205 186 180 171 176 175 179 177 163 167 178 186 189 195 201 207 214 220 224 230 235 240 244 246 249 254 258 260
215 216 223 218 217 218 222 227 222 224 213 216 232 217 206 206 200 205 205 204 206 209 211 216 219 222 221 225 232 237 241 245 248 248 249 252 255 258 262 265 265 266 267